EW1160 Weather Reports


Display with metric or nautical units.
time (UTC)temp
F
wind
direction
speed
MPH
gust
MPH
rain 1hr
in
rain 24hr
in
rain mn
in
humidity
%
barometer
mb
20260509023026 50 184 0.0 0.0 0.00 0.00 0.00 82 1006.0
20260509021527 51 194 0.0 0.0 0.00 0.00 0.00 81 1005.9
20260509020008 52 174 0.0 0.0 0.00 0.00 0.00 80 1005.9
20260509014508 52 185 0.0 0.0 0.00 0.00 0.00 78 1005.9
20260509013053 53 170 0.0 0.0 0.00 0.00 0.00 77 1005.7
20260509011550 54 166 0.0 0.0 0.00 0.00 0.00 75 1005.5
20260509010043 55 174 0.0 0.0 0.00 0.00 0.00 73 1005.4
20260509004548 56 179 0.0 0.0 0.00 0.00 0.00 71 1005.2
20260509003037 57 172 0.0 0.0 0.00 0.00 0.00 66 1005.2
20260509001537 57 170 0.0 0.0 0.00 0.00 0.00 63 1005.0
20260509000044 58 183 0.0 0.0 0.00 0.00 0.00 61 1005.0
20260508234536 59 193 0.0 0.0 0.00 0.00 0.00 59 1005.0
20260508233036 60 199 0.0 0.0 0.00 0.00 0.00 54 1005.0
20260508231534 61 178 0.0 0.0 0.00 0.00 0.00 46 1005.0
20260508230017 61 204 0.0 0.0 0.00 0.00 0.00 44 1004.9
20260508224516 61 188 0.0 0.0 0.00 0.00 0.00 43 1004.9
20260508223057 61 202 0.0 0.0 0.00 0.00 0.00 45 1005.0
20260508221600 61 207 0.0 0.0 0.00 0.00 0.00 43 1005.1
20260508220042 60 184 0.0 0.0 0.00 0.00 0.00 39 1005.3
20260508214538 61 220 0.0 0.0 0.00 0.00 0.00 40 1005.2
20260508213028 61 178 0.0 0.0 0.00 0.00 0.00 39 1005.4
20260508211518 62 179 0.0 0.0 0.00 0.00 0.00 37 1005.6
20260508210005 61 275 0.0 0.0 0.00 0.00 0.00 39 1005.6
20260508204504 61 275 0.0 0.0 0.00 0.00 0.00 38 1005.8
20260508203003 61 282 0.0 0.0 0.00 0.00 0.00 37 1006.0
20260508201613 61 328 0.0 0.0 0.00 0.00 0.00 39 1006.2
20260508200126 60 239 0.0 0.0 0.00 0.00 0.00 39 1006.4
20260508194555 60 354 0.0 0.0 0.00 0.00 0.00 37 1006.6
20260508193055 59 311 0.0 0.0 0.00 0.00 0.00 36 1006.8
20260508191550 58 12 0.0 0.0 0.00 0.00 0.00 40 1007.0
20260508190051 57 9 0.0 0.0 0.00 0.00 0.00 40 1007.2
20260508184527 57 354 0.0 0.0 0.00 0.00 0.00 34 1007.4
20260508183024 56 338 0.0 0.0 0.00 0.00 0.00 36 1007.7
20260508181537 56 359 0.0 0.0 0.00 0.00 0.00 34 1007.7
20260508180010 56 14 0.0 0.0 0.00 0.00 0.00 33 1008.0
20260508174515 57 4 0.0 0.0 0.00 0.00 0.00 33 1008.3
20260508173004 56 32 0.0 0.0 0.00 0.00 0.00 34 1008.5
20260508171502 55 16 0.0 0.0 0.00 0.00 0.00 36 1008.7
20260508170059 55 310 0.0 0.0 0.00 0.00 0.00 44 1009.0
20260508164558 54 359 0.0 0.0 0.00 0.00 0.00 46 1009.1
20260508163053 53 354 0.0 0.0 0.00 0.00 0.00 50 1009.2
20260508161537 52 359 0.0 0.0 0.00 0.00 0.00 48 1009.3
20260508160039 52 10 0.0 0.0 0.00 0.00 0.00 47 1009.4
20260508154515 52 18 0.0 0.0 0.00 0.00 0.00 46 1009.5
20260508153014 52 274 0.0 0.0 0.00 0.00 0.00 53 1009.6
20260508151606 50 312 0.0 0.0 0.00 0.00 0.00 51 1009.6
20260508150057 50 333 0.0 0.0 0.00 0.00 0.00 55 1009.8
20260508144558 49 337 0.0 0.0 0.00 0.00 0.00 66 1009.9
20260508143054 48 337 0.0 0.0 0.00 0.00 0.00 65 1009.9
20260508141558 48 257 0.0 0.0 0.00 0.00 0.00 66 1010.0
20260508140055 48 301 0.0 0.0 0.00 0.00 0.00 67 1009.9
20260508134547 48 301 0.0 0.0 0.00 0.00 0.00 67 1010.0
20260508133050 48 220 0.0 0.0 0.00 0.00 0.00 71 1010.1
20260508131529 47 247 0.0 0.0 0.00 0.00 0.00 71 1010.0
20260508130027 47 247 0.0 0.0 0.00 0.00 0.00 73 1009.9
20260508124510 46 209 0.0 0.0 0.00 0.00 0.00 74 1009.7
20260508123009 45 203 0.0 0.0 0.00 0.00 0.00 74 1009.5
20260508121508 44 167 0.0 0.0 0.00 0.00 0.00 79 1009.4
20260508120007 43 162 0.0 0.0 0.00 0.00 0.00 84 1009.5
20260508114506 41 161 0.0 0.0 0.00 0.00 0.00 88 1009.4
20260508113007 39 161 0.0 0.0 0.00 0.00 0.00 89 1009.3
20260508111511 38 161 0.0 0.0 0.00 0.00 0.00 89 1009.3
20260508110007 38 161 0.0 0.0 0.00 0.00 0.00 89 1009.2
20260508104505 38 161 0.0 0.0 0.00 0.00 0.00 88 1009.2
20260508103009 38 161 0.0 0.0 0.00 0.00 0.00 87 1009.2
20260508101501 39 161 0.0 0.0 0.00 0.00 0.00 85 1009.1
20260508100058 40 161 0.0 0.0 0.00 0.00 0.00 84 1009.2
20260508094610 41 161 0.0 0.0 0.00 0.00 0.00 83 1009.3
20260508093056 41 161 0.0 0.0 0.00 0.00 0.00 82 1009.3
20260508091534 42 161 0.0 0.0 0.00 0.00 0.00 81 1009.3
20260508090037 42 161 0.0 0.0 0.00 0.00 0.00 81 1009.2
20260508084516 42 152 0.0 0.0 0.00 0.00 0.00 81 1009.3
20260508083016 42 147 0.0 0.0 0.00 0.00 0.00 81 1009.3
20260508081559 42 147 0.0 0.0 0.00 0.00 0.00 81 1009.0
20260508080058 42 103 0.0 0.0 0.00 0.00 0.00 82 1009.4
20260508074541 42 102 0.0 0.0 0.00 0.00 0.00 82 1009.2
20260508073040 41 102 0.0 0.0 0.00 0.00 0.00 82 1009.2
20260508071526 41 102 0.0 0.0 0.00 0.00 0.00 83 1009.4
20260508070021 41 102 0.0 0.0 0.00 0.00 0.00 83 1009.5
20260508064501 41 102 0.0 0.0 0.00 0.00 0.00 81 1009.7
20260508063103 41 102 0.0 0.0 0.00 0.00 0.00 80 1009.8
20260508061541 42 102 0.0 0.0 0.00 0.00 0.00 79 1009.9
20260508060039 42 102 0.0 0.0 0.00 0.00 0.00 78 1010.0
20260508054520 43 102 0.0 0.0 0.00 0.00 0.00 78 1010.0
20260508053023 43 102 0.0 0.0 0.00 0.00 0.00 74 1010.0
20260508051603 44 102 0.0 0.0 0.00 0.00 0.00 72 1010.1
20260508044542 45 102 0.0 0.0 0.00 0.00 0.00 69 1009.8
20260508043042 44 104 0.0 0.0 0.00 0.00 0.00 71 1009.9
20260508041520 43 120 0.0 0.0 0.00 0.00 0.00 73 1009.9
20260508040023 43 120 0.0 0.0 0.00 0.00 0.00 71 1010.0
20260508034603 43 120 0.0 0.0 0.00 0.00 0.00 72 1009.9
20260508033057 42 120 0.0 0.0 0.00 0.00 0.00 71 1009.9
20260508031540 43 120 0.0 0.0 0.00 0.00 0.00 72 1010.0
20260508030042 43 120 0.0 0.0 0.00 0.00 0.00 70 1010.0
20260508024532 43 120 0.0 0.0 0.00 0.00 0.00 72 1010.2